| time (UTC) | temp F | wind direction | speed MPH | gust MPH | rain 1hr in | rain 24hr in | rain mn in | humidity % | barometer mb |
| 20260901034409 | 57 | 5 | 0.0 | 0.0 | 0.00 | 0.01 | 0.00 | 81 | 980.5 |
| 20260901031409 | 58 | 5 | 0.0 | 0.0 | 0.00 | 0.01 | 0.00 | 80 | 980.6 |
| 20260901024409 | 59 | 5 | 0.0 | 0.0 | 0.00 | 0.01 | 0.00 | 80 | 980.8 |
| 20260901021406 | 59 | 5 | 0.0 | 0.0 | 0.00 | 0.01 | 0.00 | 80 | 980.9 |
| 20260901014405 | 60 | 5 | 0.0 | 0.0 | 0.00 | 0.01 | 0.00 | 80 | 980.8 |
| 20260901011406 | 60 | 9 | 0.0 | 0.0 | 0.00 | 0.01 | 0.00 | 79 | 980.8 |
| 20260901004404 | 60 | 9 | 0.0 | 0.0 | 0.00 | 0.01 | 0.00 | 77 | 980.8 |
| 20260901001403 | 61 | 9 | 0.0 | 0.0 | 0.00 | 0.01 | 0.00 | 76 | 980.9 |
| 20260831234406 | 62 | 9 | 0.0 | 0.0 | 0.00 | 0.01 | 0.00 | 75 | 981.0 |
| 20260831231402 | 62 | 9 | 0.0 | 0.0 | 0.00 | 0.01 | 0.00 | 74 | 980.9 |
| 20260831224404 | 63 | 9 | 0.0 | 0.0 | 0.00 | 0.01 | 0.00 | 74 | 980.8 |
| 20260831221403 | 65 | 9 | 0.0 | 0.0 | 0.00 | 0.01 | 0.00 | 71 | 980.8 |
| 20260831214402 | 66 | 9 | 0.0 | 0.0 | 0.00 | 0.01 | 0.01 | 69 | 980.8 |
| 20260831212746 | 67 | 9 | 0.0 | 0.0 | 0.00 | 0.01 | 0.01 | 67 | 980.8 |
| 20260831204359 | 68 | 13 | 0.0 | 0.0 | 0.00 | 0.01 | 0.01 | 67 | 980.7 |
| 20260831202750 | 68 | 12 | 0.0 | 0.0 | 0.00 | 0.01 | 0.01 | 66 | 980.6 |
| 20260831194357 | 69 | 0 | 0.0 | 0.0 | 0.00 | 0.01 | 0.01 | 64 | 980.2 |
| 20260831191358 | 70 | 0 | 0.0 | 0.0 | 0.00 | 0.01 | 0.01 | 62 | 979.9 |
| 20260831185740 | 71 | 0 | 0.0 | 0.0 | 0.00 | 0.01 | 0.01 | 61 | 979.5 |
| 20260831181357 | 73 | 54 | 0.0 | 0.0 | 0.00 | 0.01 | 0.01 | 60 | 979.2 |
| 20260831174355 | 75 | 55 | 0.0 | 0.0 | 0.00 | 0.01 | 0.01 | 54 | 979.0 |
| 20260831171354 | 76 | 56 | 0.0 | 0.0 | 0.00 | 0.01 | 0.01 | 50 | 979.0 |
| 20260831164355 | 78 | 57 | 0.0 | 0.0 | 0.00 | 0.01 | 0.01 | 48 | 979.0 |
| 20260831162738 | 79 | 0 | 0.0 | 0.0 | 0.00 | 0.01 | 0.01 | 47 | 979.0 |
| 20260831154352 | 79 | 0 | 0.0 | 3.0 | 0.00 | 0.01 | 0.01 | 45 | 978.9 |
| 20260831151404 | 79 | 128 | 0.0 | 3.0 | 0.00 | 0.01 | 0.01 | 44 | 979.1 |
| 20260831151140 | 80 | 0 | 0.0 | 3.0 | 0.00 | 0.01 | 0.01 | 45 | 979.2 |
| 20260831141352 | 80 | 0 | 0.0 | 4.0 | 0.00 | 0.01 | 0.01 | 44 | 979.2 |
| 20260831134352 | 81 | 0 | 0.0 | 1.0 | 0.00 | 0.01 | 0.01 | 44 | 979.3 |
| 20260831131349 | 82 | 0 | 0.0 | 3.0 | 0.00 | 0.01 | 0.01 | 42 | 979.6 |
| 20260831124349 | 82 | 336 | 0.0 | 0.0 | 0.00 | 0.01 | 0.01 | 45 | 979.7 |
| 20260831124121 | 81 | 0 | 0.0 | 2.0 | 0.00 | 0.01 | 0.01 | 46 | 979.9 |
| 20260831114342 | 80 | 143 | 0.0 | 5.0 | 0.00 | 0.01 | 0.01 | 50 | 979.8 |
| 20260831111344 | 80 | 305 | 0.0 | 0.0 | 0.00 | 0.01 | 0.01 | 51 | 980.0 |
| 20260831104342 | 79 | 347 | 0.0 | 2.0 | 0.00 | 0.01 | 0.01 | 55 | 980.1 |
| 20260831102724 | 79 | 57 | 0.0 | 0.0 | 0.00 | 0.01 | 0.01 | 54 | 980.1 |
| 20260831094340 | 78 | 63 | 0.0 | 1.0 | 0.00 | 0.01 | 0.01 | 58 | 980.2 |
| 20260831091340 | 76 | 346 | 0.0 | 0.0 | 0.00 | 0.01 | 0.01 | 62 | 980.4 |
| 20260831084341 | 75 | 50 | 0.0 | 7.0 | 0.00 | 0.01 | 0.01 | 61 | 980.2 |
| 20260831081339 | 73 | 355 | 0.0 | 3.0 | 0.00 | 0.01 | 0.01 | 67 | 980.1 |
| 20260831074339 | 71 | 345 | 0.0 | 4.0 | 0.00 | 0.01 | 0.01 | 72 | 979.9 |
| 20260831072718 | 67 | 348 | 0.0 | 0.0 | 0.00 | 0.01 | 0.01 | 83 | 979.6 |
| 20260831064335 | 65 | 16 | 0.0 | 0.0 | 0.00 | 0.01 | 0.01 | 88 | 979.6 |
| 20260831061334 | 64 | 28 | 0.0 | 0.0 | 0.00 | 0.01 | 0.01 | 92 | 979.3 |
| 20260831054333 | 64 | 80 | 0.0 | 0.0 | 0.00 | 0.01 | 0.01 | 89 | 979.0 |
| 20260831051332 | 64 | 86 | 0.0 | 0.0 | 0.00 | 0.01 | 0.01 | 88 | 978.7 |
| 20260831044333 | 65 | 88 | 0.0 | 0.0 | 0.01 | 0.01 | 0.01 | 88 | 978.4 |
| 20260831041334 | 66 | 86 | 0.0 | 0.0 | 0.01 | 0.01 | 0.01 | 88 | 978.3 |